TimeMDT,TemperatureF,Dew PointF,Humidity,Sea Level PressureIn,VisibilityMPH,Wind Direction,Wind SpeedMPH,Gust SpeedMPH,PrecipitationIn,Events,Conditions,WindDirDegrees,DateUTC
12:15 AM,33.8,30.9,89,30.13,10.0,East,6.9,-,N/A,,Clear,100,2013-03-28 06:15:00
12:35 AM,33.8,30.4,87,30.13,10.0,Calm,Calm,-,N/A,,Clear,0,2013-03-28 06:35:00
12:55 AM,34.7,30.7,85,30.12,10.0,Calm,Calm,-,N/A,,Clear,0,2013-03-28 06:55:00
1:15 AM,32.2,28.9,88,30.13,10.0,Calm,Calm,-,N/A,,Clear,0,2013-03-28 07:15:00
1:35 AM,30.2,27.9,91,30.13,10.0,Calm,Calm,-,N/A,,Clear,0,2013-03-28 07:35:00
1:55 AM,31.3,29.1,92,30.12,10.0,WSW,3.5,-,N/A,,Clear,250,2013-03-28 07:55:00
2:15 AM,31.8,29.8,92,30.12,10.0,Calm,Calm,-,N/A,,Clear,0,2013-03-28 08:15:00
2:35 AM,32.0,29.8,92,30.11,10.0,ENE,4.6,-,N/A,,Clear,70,2013-03-28 08:35:00
2:55 AM,32.5,30.2,91,30.11,10.0,Calm,Calm,-,N/A,,Clear,0,2013-03-28 08:55:00
3:15 AM,31.8,28.9,89,30.10,10.0,SW,3.5,-,N/A,,Clear,220,2013-03-28 09:15:00
3:35 AM,30.6,28.2,91,30.11,10.0,Calm,Calm,-,N/A,,Clear,0,2013-03-28 09:35:00
3:55 AM,32.0,29.5,90,30.10,10.0,Calm,Calm,-,N/A,,Clear,0,2013-03-28 09:55:00
4:15 AM,31.6,29.5,92,30.11,10.0,Calm,Calm,-,N/A,,Clear,0,2013-03-28 10:15:00
4:35 AM,30.6,28.4,92,30.10,10.0,Calm,Calm,-,N/A,,Scattered Clouds,0,2013-03-28 10:35:00
4:55 AM,30.9,28.4,90,30.09,10.0,Calm,Calm,-,N/A,,Scattered Clouds,0,2013-03-28 10:55:00
5:15 AM,31.1,28.8,91,30.09,7.0,Calm,Calm,-,N/A,,Scattered Clouds,0,2013-03-28 11:15:00
5:35 AM,30.9,29.1,93,30.08,5.0,Calm,Calm,-,N/A,,Scattered Clouds,0,2013-03-28 11:35:00
5:55 AM,31.8,30.0,93,30.08,7.0,Calm,Calm,-,N/A,,Mostly Cloudy,0,2013-03-28 11:55:00
6:15 AM,31.8,29.8,92,30.08,7.0,ENE,4.6,-,N/A,,Scattered Clouds,60,2013-03-28 12:15:00
6:35 AM,32.4,30.7,94,30.08,10.0,ENE,4.6,-,N/A,,Scattered Clouds,70,2013-03-28 12:35:00
6:55 AM,32.7,30.9,93,30.08,7.0,East,3.5,-,N/A,,Mostly Cloudy,90,2013-03-28 12:55:00
7:15 AM,33.3,31.1,92,30.08,7.0,ENE,4.6,-,N/A,,Scattered Clouds,70,2013-03-28 13:15:00
7:35 AM,34.3,32.0,91,30.09,10.0,NE,3.5,-,N/A,,Mostly Cloudy,50,2013-03-28 13:35:00
7:55 AM,35.8,32.4,87,30.10,10.0,East,3.5,-,N/A,,Overcast,90,2013-03-28 13:55:00
8:15 AM,36.7,32.9,86,30.09,10.0,NE,4.6,-,N/A,,Overcast,50,2013-03-28 14:15:00
8:35 AM,38.7,33.3,81,30.10,10.0,Calm,Calm,-,N/A,,Mostly Cloudy,0,2013-03-28 14:35:00
8:55 AM,39.4,33.4,79,30.10,10.0,Calm,Calm,-,N/A,,Mostly Cloudy,0,2013-03-28 14:55:00
9:15 AM,41.9,34.5,75,30.10,10.0,SE,4.6,-,N/A,,Scattered Clouds,130,2013-03-28 15:15:00
9:35 AM,45.1,35.8,70,30.09,10.0,SSE,6.9,-,N/A,,Scattered Clouds,160,2013-03-28 15:35:00
9:55 AM,48.7,34.9,59,30.10,10.0,SSW,11.5,-,N/A,,Scattered Clouds,200,2013-03-28 15:55:00
10:15 AM,52.0,34.7,52,30.10,10.0,SSW,11.5,-,N/A,,Scattered Clouds,200,2013-03-28 16:15:00
10:35 AM,53.6,34.7,49,30.10,10.0,South,11.5,-,N/A,,Clear,190,2013-03-28 16:35:00
10:55 AM,55.6,34.7,45,30.10,10.0,South,16.1,21.9,N/A,,Clear,180,2013-03-28 16:55:00
11:15 AM,57.7,33.6,40,30.09,10.0,SSW,17.3,20.7,N/A,,Clear,200,2013-03-28 17:15:00
11:35 AM,58.1,33.1,39,30.09,10.0,SSW,17.3,23.0,N/A,,Clear,200,2013-03-28 17:35:00
11:55 AM,58.6,33.1,38,30.08,10.0,SSW,17.3,24.2,N/A,,Clear,210,2013-03-28 17:55:00
12:15 PM,59.0,32.5,37,30.07,10.0,SW,18.4,27.6,N/A,,Clear,220,2013-03-28 18:15:00
12:35 PM,60.3,33.8,37,30.06,10.0,SSW,19.6,26.5,N/A,,Clear,200,2013-03-28 18:35:00
12:55 PM,60.3,34.9,39,30.06,10.0,SSW,17.3,27.6,N/A,,Clear,210,2013-03-28 18:55:00
1:15 PM,61.0,34.7,37,30.06,10.0,South,16.1,21.9,N/A,,Clear,190,2013-03-28 19:15:00
1:35 PM,61.5,35.6,38,30.06,10.0,SSW,13.8,-,N/A,,Clear,210,2013-03-28 19:35:00
1:55 PM,62.1,34.7,36,30.05,10.0,South,13.8,21.9,N/A,,Clear,190,2013-03-28 19:55:00
2:15 PM,62.6,34.3,35,30.04,10.0,SSW,12.7,20.7,N/A,,Clear,200,2013-03-28 20:15:00
2:35 PM,63.7,34.0,33,30.04,10.0,SSW,11.5,16.1,N/A,,Clear,210,2013-03-28 20:35:00
2:55 PM,63.7,34.5,34,30.04,10.0,South,11.5,16.1,N/A,,Clear,190,2013-03-28 20:55:00
3:15 PM,64.2,34.7,33,30.03,10.0,SW,8.1,-,N/A,,Clear,220,2013-03-28 21:15:00
3:35 PM,65.5,34.7,32,30.03,10.0,South,9.2,-,N/A,,Clear,180,2013-03-28 21:35:00
3:55 PM,64.4,33.6,32,30.03,10.0,South,4.6,-,N/A,,Clear,170,2013-03-28 21:55:00
4:15 PM,65.1,34.2,32,30.02,10.0,SSW,9.2,-,N/A,,Mostly Cloudy,200,2013-03-28 22:15:00
4:35 PM,65.1,33.8,31,30.02,10.0,South,8.1,-,N/A,,Scattered Clouds,180,2013-03-28 22:35:00
4:55 PM,64.9,33.4,31,30.02,10.0,SSE,5.8,-,N/A,,Scattered Clouds,160,2013-03-28 22:55:00
5:15 PM,65.1,33.8,31,30.02,10.0,South,9.2,-,N/A,,Clear,190,2013-03-28 23:15:00
5:35 PM,64.4,33.8,32,30.03,10.0,South,10.4,-,N/A,,Clear,170,2013-03-28 23:35:00
5:55 PM,63.7,33.1,32,30.03,10.0,SSE,6.9,-,N/A,,Clear,160,2013-03-28 23:55:00
6:15 PM,63.0,33.3,33,30.03,10.0,South,6.9,-,N/A,,Clear,180,2013-03-29 00:15:00
6:35 PM,61.5,34.0,36,30.04,10.0,South,5.8,-,N/A,,Clear,190,2013-03-29 00:35:00
6:55 PM,59.0,34.7,40,30.04,10.0,South,6.9,-,N/A,,Clear,190,2013-03-29 00:55:00
7:15 PM,57.2,35.6,44,30.05,10.0,SSW,6.9,-,N/A,,Clear,200,2013-03-29 01:15:00
7:35 PM,54.1,36.0,50,30.05,10.0,SW,3.5,-,N/A,,Clear,220,2013-03-29 01:35:00
7:55 PM,52.2,35.4,53,30.06,10.0,Calm,Calm,-,N/A,,Clear,0,2013-03-29 01:55:00
8:15 PM,48.9,35.4,60,30.07,10.0,Calm,Calm,-,N/A,,Clear,0,2013-03-29 02:15:00
8:35 PM,47.5,34.7,61,30.07,10.0,Calm,Calm,-,N/A,,Clear,0,2013-03-29 02:35:00
8:55 PM,43.7,33.8,68,30.08,10.0,WSW,4.6,-,N/A,,Clear,250,2013-03-29 02:55:00
9:15 PM,48.9,35.6,60,30.09,10.0,Calm,Calm,-,N/A,,Clear,0,2013-03-29 03:15:00
9:35 PM,44.8,34.5,67,30.10,10.0,Calm,Calm,-,N/A,,Clear,0,2013-03-29 03:35:00
9:55 PM,43.2,34.2,71,30.10,10.0,Calm,Calm,-,N/A,,Clear,0,2013-03-29 03:55:00
10:15 PM,41.2,33.8,75,30.10,10.0,Calm,Calm,-,N/A,,Clear,0,2013-03-29 04:15:00
10:35 PM,39.9,33.6,78,30.10,10.0,Calm,Calm,-,N/A,,Clear,0,2013-03-29 04:35:00
10:55 PM,39.9,33.8,79,30.10,10.0,Calm,Calm,-,N/A,,Clear,0,2013-03-29 04:55:00
11:15 PM,39.9,34.0,79,30.09,10.0,Calm,Calm,-,N/A,,Clear,0,2013-03-29 05:15:00
11:35 PM,44.6,35.1,69,30.09,10.0,Calm,Calm,-,N/A,,Clear,0,2013-03-29 05:35:00
11:55 PM,49.1,35.4,59,30.10,10.0,Calm,Calm,-,N/A,,Clear,0,2013-03-29 05:55:00